DEKKE EDMO-EDDN

Flight info

Callsign DEKKE
Flight time 0h 47m
Altitude 6500
Route OTT DCT EDDM DCT ETSI
Aircraft BE36/L-BDFGLORY/S

Departure

Time 2026-04-15 13:28
Airport Oberpfaffenhofen Airport (EDMO)

Arrival

Time 2026-04-15 14:15
Airport Nuremberg Airport (EDDN)
Time Latitude Longitude Altitude Speed Heading
2026-04-15 13:06 48.08782 11.28594 1898 ft 0 kts 316°
2026-04-15 13:21 48.08795 11.28600 1898 ft 4 kts 79°
2026-04-15 13:22 48.08777 11.28638 1893 ft 4 kts 136°
2026-04-15 13:22 48.08775 11.28694 1897 ft 10 kts 43°
2026-04-15 13:22 48.08837 11.28784 1895 ft 14 kts 48°
2026-04-15 13:22 48.08861 11.28904 1893 ft 13 kts 88°
2026-04-15 13:23 48.08861 11.29022 1888 ft 6 kts 76°
2026-04-15 13:23 48.08862 11.29028 1891 ft 0 kts 66°
2026-04-15 13:26 48.08864 11.29043 1886 ft 5 kts 89°
2026-04-15 13:26 48.08862 11.29142 1887 ft 13 kts 93°
2026-04-15 13:27 48.08844 11.29242 1885 ft 6 kts 133°
2026-04-15 13:27 48.08817 11.29234 1888 ft 5 kts 223°
2026-04-15 13:27 48.08795 11.29204 1889 ft 0 kts 223°
2026-04-15 13:27 48.08754 11.29148 1891 ft 36 kts 222°
2026-04-15 13:28 48.08389 11.28651 1921 ft 97 kts 221°
2026-04-15 13:28 48.07853 11.27925 2193 ft 109 kts 225°
2026-04-15 13:28 48.07310 11.27129 2570 ft 110 kts 225°
2026-04-15 13:28 48.06623 11.26650 2890 ft 114 kts 174°
2026-04-15 13:29 48.05984 11.27305 3004 ft 119 kts 119°
2026-04-15 13:29 48.05613 11.28437 3030 ft 126 kts 112°
2026-04-15 13:29 48.05248 11.29673 3036 ft 133 kts 110°
2026-04-15 13:29 48.04906 11.30973 3068 ft 136 kts 110°
2026-04-15 13:30 48.04521 11.32289 3090 ft 139 kts 112°
2026-04-15 13:30 48.04093 11.33607 3089 ft 143 kts 114°
2026-04-15 13:30 48.03644 11.34945 3080 ft 149 kts 115°
2026-04-15 13:30 48.03168 11.36335 3129 ft 150 kts 114°
2026-04-15 13:31 48.02719 11.37756 3129 ft 153 kts 111°
2026-04-15 13:31 48.02301 11.39212 3135 ft 153 kts 111°
2026-04-15 13:31 48.01909 11.40703 3128 ft 155 kts 107°
2026-04-15 13:31 48.01564 11.42217 3169 ft 153 kts 103°
2026-04-15 13:32 48.01470 11.43791 3181 ft 152 kts 83°
2026-04-15 13:32 48.01857 11.45244 3147 ft 152 kts 53°
2026-04-15 13:32 48.02475 11.46488 3236 ft 147 kts 51°
2026-04-15 13:32 48.03088 11.47717 3270 ft 147 kts 52°
2026-04-15 13:33 48.03732 11.48920 3260 ft 149 kts 47°
2026-04-15 13:33 48.04399 11.50094 3297 ft 149 kts 50°
2026-04-15 13:33 48.05053 11.51306 3295 ft 150 kts 50°
2026-04-15 13:33 48.05682 11.52516 3325 ft 150 kts 51°
2026-04-15 13:34 48.06295 11.53763 3359 ft 148 kts 52°
2026-04-15 13:34 48.06921 11.54993 3362 ft 149 kts 53°
2026-04-15 13:34 48.07507 11.56279 3366 ft 150 kts 54°
2026-04-15 13:34 48.08094 11.57555 3390 ft 149 kts 55°
2026-04-15 13:35 48.08664 11.58846 3384 ft 149 kts 59°
2026-04-15 13:35 48.09175 11.60187 3349 ft 149 kts 58°
2026-04-15 13:35 48.09737 11.61503 3332 ft 149 kts 57°
2026-04-15 13:35 48.10322 11.62785 3313 ft 149 kts 54°
2026-04-15 13:36 48.10906 11.64057 3310 ft 148 kts 57°
2026-04-15 13:36 48.11468 11.65314 3300 ft 148 kts 56°
2026-04-15 13:36 48.12050 11.66585 3299 ft 147 kts 56°
2026-04-15 13:36 48.12624 11.67857 3290 ft 148 kts 57°
2026-04-15 13:37 48.13199 11.69148 3256 ft 149 kts 56°
2026-04-15 13:37 48.13766 11.70423 3301 ft 145 kts 57°
2026-04-15 13:37 48.14309 11.71696 3320 ft 145 kts 57°
2026-04-15 13:37 48.14868 11.72947 3330 ft 145 kts 56°
2026-04-15 13:38 48.15406 11.74232 3310 ft 147 kts 59°
2026-04-15 13:38 48.15909 11.75522 3314 ft 145 kts 60°
2026-04-15 13:38 48.16391 11.76865 3338 ft 144 kts 62°
2026-04-15 13:38 48.16848 11.78172 3339 ft 144 kts 62°
2026-04-15 13:39 48.17336 11.79472 3371 ft 142 kts 59°
2026-04-15 13:39 48.17974 11.80614 3366 ft 145 kts 41°
2026-04-15 13:39 48.18815 11.81441 3373 ft 145 kts 30°
2026-04-15 13:39 48.19780 11.81748 3389 ft 148 kts 351°
2026-04-15 13:40 48.20776 11.81351 3401 ft 147 kts 349°
2026-04-15 13:40 48.21789 11.81071 3392 ft 148 kts 352°
2026-04-15 13:40 48.22816 11.80839 3365 ft 151 kts 354°
2026-04-15 13:40 48.23858 11.80618 3379 ft 150 kts 354°
2026-04-15 13:41 48.24882 11.80399 3386 ft 151 kts 353°
2026-04-15 13:41 48.25914 11.80160 3422 ft 149 kts 353°
2026-04-15 13:41 48.26951 11.79923 3387 ft 154 kts 353°
2026-04-15 13:41 48.28004 11.79693 3401 ft 152 kts 354°
2026-04-15 13:42 48.29046 11.79492 3406 ft 152 kts 355°
2026-04-15 13:42 48.30095 11.79296 3422 ft 151 kts 355°
2026-04-15 13:42 48.31139 11.79103 3405 ft 152 kts 355°
2026-04-15 13:42 48.32170 11.78759 3407 ft 153 kts 343°
2026-04-15 13:43 48.33183 11.78306 3428 ft 151 kts 353°
2026-04-15 13:43 48.34198 11.78330 3462 ft 148 kts 11°
2026-04-15 13:43 48.35190 11.78683 3499 ft 146 kts 18°
2026-04-15 13:43 48.36154 11.79228 3469 ft 148 kts 25°
2026-04-15 13:44 48.37075 11.79920 3456 ft 148 kts 30°
2026-04-15 13:44 48.37990 11.80658 3419 ft 151 kts 29°
2026-04-15 13:44 48.38924 11.81392 3396 ft 151 kts 28°
2026-04-15 13:44 48.39923 11.81857 3391 ft 152 kts
2026-04-15 13:45 48.40977 11.81738 3401 ft 152 kts 353°
2026-04-15 13:45 48.42019 11.81457 3408 ft 152 kts 352°
2026-04-15 13:45 48.43068 11.81217 3394 ft 153 kts 354°
2026-04-15 13:47 48.49759 11.77065 3663 ft 155 kts 320°
2026-04-15 13:47 48.50579 11.76020 3880 ft 154 kts 323°
2026-04-15 13:47 48.51431 11.75054 4044 ft 157 kts 325°
2026-04-15 13:48 48.52338 11.74065 4058 ft 164 kts 326°
2026-04-15 13:48 48.53272 11.73048 4067 ft 166 kts 325°
2026-04-15 13:48 48.54230 11.72045 4059 ft 169 kts 328°
2026-04-15 13:48 48.55209 11.71061 4060 ft 170 kts 328°
2026-04-15 13:49 48.56185 11.70064 4059 ft 170 kts 327°
2026-04-15 13:49 48.57164 11.69058 4061 ft 170 kts 327°
2026-04-15 13:49 48.58122 11.68071 4063 ft 167 kts 327°
2026-04-15 13:49 48.59074 11.67088 4063 ft 165 kts 327°
2026-04-15 13:50 48.60013 11.66102 4063 ft 163 kts 326°
2026-04-15 13:50 48.60937 11.65112 4060 ft 162 kts 326°
2026-04-15 13:50 48.61855 11.64130 4061 ft 161 kts 326°
2026-04-15 13:50 48.62765 11.63150 4060 ft 160 kts 326°
2026-04-15 13:51 48.63677 11.62167 4061 ft 161 kts 326°
2026-04-15 13:51 48.64585 11.61191 4063 ft 159 kts 326°
2026-04-15 13:51 48.65487 11.60224 4060 ft 159 kts 326°
2026-04-15 13:51 48.66380 11.59269 4063 ft 160 kts 326°
2026-04-15 13:52 48.67286 11.58297 4062 ft 160 kts 326°
2026-04-15 13:52 48.68191 11.57325 4062 ft 160 kts 326°
2026-04-15 13:52 48.69093 11.56351 4062 ft 160 kts 326°
2026-04-15 13:52 48.70001 11.55375 4062 ft 160 kts 326°
2026-04-15 13:53 48.70908 11.54401 4062 ft 160 kts 326°
2026-04-15 13:53 48.71815 11.53427 4062 ft 160 kts 326°
2026-04-15 13:53 48.72721 11.52452 4062 ft 160 kts 326°
2026-04-15 13:53 48.73627 11.51476 4062 ft 160 kts 326°
2026-04-15 13:54 48.74520 11.50514 4063 ft 160 kts 326°
2026-04-15 13:54 48.75412 11.49551 4061 ft 159 kts 326°
2026-04-15 13:54 48.76404 11.48849 4063 ft 158 kts 344°
2026-04-15 13:54 48.77450 11.48352 4063 ft 158 kts 345°
2026-04-15 13:55 48.78486 11.47806 4065 ft 158 kts 337°
2026-04-15 13:55 48.79467 11.47040 4066 ft 159 kts 333°
2026-04-15 13:55 48.80444 11.46241 4065 ft 159 kts 333°
2026-04-15 13:55 48.81418 11.45441 4065 ft 159 kts 333°
2026-04-15 13:56 48.82391 11.44643 4065 ft 159 kts 333°
2026-04-15 13:56 48.83355 11.43881 4065 ft 159 kts 336°
2026-04-15 13:56 48.84366 11.43201 4065 ft 159 kts 338°
2026-04-15 13:56 48.85379 11.42539 4065 ft 158 kts 338°
2026-04-15 13:57 48.86393 11.41879 4065 ft 158 kts 338°
2026-04-15 13:57 48.87405 11.41221 4065 ft 157 kts 338°
2026-04-15 13:57 48.88413 11.40560 4066 ft 159 kts 338°
2026-04-15 13:57 48.89430 11.39899 4065 ft 159 kts 338°
2026-04-15 13:58 48.90450 11.39236 4067 ft 159 kts 338°
2026-04-15 13:58 48.91470 11.38572 4066 ft 159 kts 338°
2026-04-15 13:58 48.92486 11.37913 4067 ft 159 kts 338°
2026-04-15 13:58 48.93491 11.37258 4068 ft 159 kts 338°
2026-04-15 13:59 48.94512 11.36592 4068 ft 159 kts 338°
2026-04-15 13:59 48.95533 11.35926 4067 ft 160 kts 338°
2026-04-15 13:59 48.96553 11.35262 4066 ft 159 kts 338°
2026-04-15 13:59 48.97571 11.34595 4066 ft 159 kts 338°
2026-04-15 14:00 48.98589 11.33933 4066 ft 159 kts 338°
2026-04-15 14:00 48.99610 11.33283 4065 ft 159 kts 340°
2026-04-15 14:00 49.00649 11.32718 4064 ft 158 kts 343°
2026-04-15 14:00 49.01704 11.32255 4065 ft 158 kts 346°
2026-04-15 14:01 49.03804 11.31380 4064 ft 157 kts 346°
2026-04-15 14:01 49.04860 11.30942 4063 ft 158 kts 346°
2026-04-15 14:01 49.05920 11.30504 4064 ft 158 kts 346°
2026-04-15 14:02 49.06982 11.30069 4065 ft 158 kts 347°
2026-04-15 14:02 49.08050 11.29677 4064 ft 158 kts 348°
2026-04-15 14:02 49.09119 11.29293 4065 ft 158 kts 348°
2026-04-15 14:02 49.10189 11.28909 4065 ft 158 kts 348°
2026-04-15 14:03 49.11256 11.28524 4065 ft 157 kts 348°
2026-04-15 14:03 49.12323 11.28138 4063 ft 158 kts 348°
2026-04-15 14:03 49.13375 11.27763 4064 ft 157 kts 348°
2026-04-15 14:03 49.14441 11.27377 4065 ft 157 kts 348°
2026-04-15 14:04 49.15509 11.26995 4064 ft 158 kts 348°
2026-04-15 14:04 49.16579 11.26608 4064 ft 158 kts 348°
2026-04-15 14:04 49.17651 11.26222 4065 ft 158 kts 348°
2026-04-15 14:04 49.18729 11.25833 4065 ft 160 kts 348°
2026-04-15 14:05 49.19806 11.25446 4064 ft 159 kts 348°
2026-04-15 14:05 49.20879 11.25060 4065 ft 158 kts 348°
2026-04-15 14:05 49.21950 11.24675 4066 ft 158 kts 348°
2026-04-15 14:05 49.23023 11.24288 4065 ft 158 kts 348°
2026-04-15 14:06 49.24080 11.23908 4065 ft 158 kts 348°
2026-04-15 14:06 49.25159 11.23520 4068 ft 160 kts 348°
2026-04-15 14:06 49.26245 11.23129 4070 ft 161 kts 348°
2026-04-15 14:06 49.27333 11.22752 4070 ft 160 kts 349°
2026-04-15 14:07 49.28423 11.22390 4068 ft 160 kts 349°
2026-04-15 14:07 49.29511 11.22029 4068 ft 160 kts 348°
2026-04-15 14:07 49.30614 11.21661 3962 ft 165 kts 349°
2026-04-15 14:07 49.31767 11.21346 3839 ft 171 kts 352°
2026-04-15 14:08 49.32952 11.21047 3721 ft 174 kts 352°
2026-04-15 14:08 49.34146 11.20745 3548 ft 173 kts 352°
2026-04-15 14:08 49.35310 11.20452 3375 ft 170 kts 352°
2026-04-15 14:08 49.36464 11.20162 3187 ft 165 kts 352°
2026-04-15 14:09 49.37580 11.19881 3006 ft 161 kts 352°
2026-04-15 14:09 49.38626 11.19374 2997 ft 159 kts 330°
2026-04-15 14:09 49.39533 11.18416 2995 ft 158 kts 326°
2026-04-15 14:09 49.40422 11.17428 2995 ft 157 kts 324°
2026-04-15 14:10 49.41303 11.16439 2993 ft 156 kts 324°
2026-04-15 14:10 49.42173 11.15460 2992 ft 154 kts 324°
2026-04-15 14:10 49.43032 11.14498 2990 ft 152 kts 325°
2026-04-15 14:10 49.43884 11.13543 2990 ft 151 kts 325°
2026-04-15 14:11 49.44729 11.12594 2992 ft 151 kts 325°
2026-04-15 14:11 49.45506 11.11502 2972 ft 154 kts 307°
2026-04-15 14:11 49.45973 11.10074 2932 ft 150 kts 289°
2026-04-15 14:11 49.46224 11.08529 2799 ft 150 kts 282°
2026-04-15 14:12 49.46401 11.06960 2685 ft 148 kts 280°
2026-04-15 14:12 49.46557 11.05406 2576 ft 146 kts 278°
2026-04-15 14:12 49.46701 11.03857 2450 ft 146 kts 279°
2026-04-15 14:12 49.46828 11.02328 2360 ft 142 kts 277°
2026-04-15 14:13 49.47071 11.00950 2307 ft 130 kts 301°
2026-04-15 14:13 49.47730 11.00025 2144 ft 129 kts 333°
2026-04-15 14:13 49.48580 10.99696 2014 ft 126 kts
2026-04-15 14:13 49.49324 11.00319 1840 ft 126 kts 52°
2026-04-15 14:14 49.49822 11.01415 1697 ft 125 kts 57°
2026-04-15 14:14 49.50186 11.02600 1533 ft 124 kts 73°
2026-04-15 14:14 49.50243 11.03875 1364 ft 113 kts 93°
2026-04-15 14:14 49.50155 11.04937 1205 ft 93 kts 98°
2026-04-15 14:15 49.50059 11.05903 1064 ft 90 kts 97°
2026-04-15 14:15 49.49972 11.06773 1019 ft 66 kts 98°
2026-04-15 14:15 49.49919 11.07323 1019 ft 41 kts 101°
2026-04-15 14:15 49.49882 11.07584 1020 ft 12 kts 109°
2026-04-15 14:16 49.49812 11.07659 1019 ft 16 kts 152°
2026-04-15 14:16 49.49744 11.07712 1020 ft 7 kts 152°
2026-04-15 14:16 49.49720 11.07731 1020 ft 0 kts 153°
2026-04-15 14:17 49.49695 11.07750 1021 ft 7 kts 154°
2026-04-15 14:17 49.49630 11.07769 1022 ft 13 kts 187°
2026-04-15 14:17 49.49597 11.07651 1020 ft 18 kts 278°
2026-04-15 14:18 49.49617 11.07446 1019 ft 17 kts 280°
2026-04-15 14:18 49.49631 11.07311 1019 ft 13 kts 279°
2026-04-15 14:18 49.49617 11.07215 1020 ft 7 kts 191°
2026-04-15 14:18 49.49584 11.07207 1020 ft 8 kts 189°
2026-04-15 14:19 49.49517 11.07191 1020 ft 8 kts 190°
2026-04-15 14:19 49.49509 11.07087 1020 ft 13 kts 278°
2026-04-15 14:19 49.49521 11.06962 1020 ft 10 kts 278°
2026-04-15 14:19 49.49480 11.06915 1020 ft 9 kts 189°
2026-04-15 14:20 49.49438 11.06886 1020 ft 6 kts 281°
2026-04-15 14:20 49.49459 11.06885 1020 ft 0 kts 93°
2026-04-15 14:20 49.49459 11.06887 1020 ft 0 kts 97°